Tracking 28518 objects as of 2-Mar-2024
HD Live streaming from Space Station
objects crossing your sky now

STARLINK-30903

Track STARLINK-30903 now!
10-day predictions
STARLINK-30903 is classified as:


NORAD ID: 58355
Int'l Code: 2023-177E
Perigee: 565.6 km
Apogee: 566.8 km
Inclination: 43.0 °
Period: 95.8 minutes
Semi major axis: 6937 km
RCS: Unknown
Launch date: November 18, 2023
Source: United States (US)
Launch site: AIR FORCE EASTERN TEST RANGE (AFETR)
Your satellite tracking list
Your tracking list is empty




NASA's NSSDC Master Catalog

Two Line Element Set (TLE):
1 58355U 23177E   24061.67106422  .00001417  00000-0  11994-3 0  9997
2 58355  43.0015  42.2020 0000866 277.3978  82.6766 15.02537019 17190
Source of the keplerian elements: AFSPC